Location: Unspecified
(0.0000°N, 0.0000°E)
Time: 08:18:36
(UTC+00:00)

OTV 4 - Visible Passes

Search period start: 28 April 2017 00:00
Search period end: 08 May 2017 00:00
Orbit: 320 x 337 km, 38.0° (Epoch: 25 April)

Date Brightness Start Highest point End Pass type
(mag) Time Alt. Az. Time Alt. Az. Time Alt. Az.
30 Apr 2.4 18:55:18 10° N 18:57:08 16° NE 18:57:16 16° NE visible
01 May 0.4 19:12:08 10° NW 19:14:44 68° N 19:14:44 68° N visible
02 May 2.8 19:30:35 10° W 19:32:14 19° WSW 19:32:14 19° WSW visible
04 May 2.5 18:30:32 10° W 18:32:46 21° SW 18:35:01 10° SSE visible
06 May 1.8 04:35:56 29° SSE 04:36:04 29° SE 04:38:32 10° ENE visible
07 May 0.7 04:53:24 39° WNW 04:53:55 45° NW 04:56:34 10° NE visible
